JAL48 EFHK-RJTT

Flight info

Callsign JAL48
Flight time N/A
Altitude 32000
Route NUNTO Y369 REKDO DCT KOSKA DCT PENOR/N0492F310 N133 LENOV DCT KEKED DCT DINRO/N0488F330 N743 UDROS UM859 KARDE UL851 TBN UG261 NOLGA N61 LAGAS M747 SUBUT T916 BALUN/K0907F330 T916 EFMIF/K0898F350 T916 MIHOS N147 GENGA N143 RUDIZ N161 SARIN/K0900S1070 A368 FKG W188 LIKMI DCT DKO/K0895S1130 W69 HUR B339 LADIX W34 VAPGU W100 ORAVA W201 UNSEK A326 DONVO G597 AGAVO/N0485F370 Y644 EGOBA Y697 LANAT Y71 XAC
Aircraft B77W/H-SDE1E2E3FGHIJ2J3J4J5M1RWXY/LB1D1

Departure

Time 2026-05-04 15:34
Airport Helsinki Vantaa Airport (EFHK)

Arrival

Time N/A
Airport Tokyo Haneda International Airport (RJTT)
Time Latitude Longitude Altitude Speed Heading
2026-05-04 14:54 60.31447 24.96143 173 ft 0 kts 31°
2026-05-04 15:17 60.31445 24.96141 173 ft 2 kts 31°
2026-05-04 15:17 60.31432 24.96126 173 ft 2 kts 31°
2026-05-04 15:18 60.31420 24.96110 173 ft 2 kts 31°
2026-05-04 15:18 60.31411 24.96101 173 ft 1 kts 31°
2026-05-04 15:18 60.31398 24.96088 173 ft 2 kts 11°
2026-05-04 15:19 60.31369 24.96095 173 ft 2 kts 333°
2026-05-04 15:19 60.31361 24.96105 173 ft 0 kts 321°
2026-05-04 15:19 60.31350 24.96126 173 ft 1 kts 309°
2026-05-04 15:20 60.31359 24.96101 173 ft 4 kts 296°
2026-05-04 15:20 60.31359 24.96040 173 ft 4 kts 255°
2026-05-04 15:20 60.31348 24.96001 173 ft 0 kts 228°
2026-05-04 15:20 60.31346 24.95996 173 ft 0 kts 227°
2026-05-04 15:22 60.31305 24.95907 173 ft 8 kts 227°
2026-05-04 15:23 60.31271 24.95835 173 ft 11 kts 228°
2026-05-04 15:23 60.31210 24.95698 174 ft 13 kts 226°
2026-05-04 15:23 60.31166 24.95567 174 ft 10 kts 264°
2026-05-04 15:23 60.31206 24.95441 174 ft 12 kts 315°
2026-05-04 15:24 60.31353 24.95166 174 ft 12 kts 316°
2026-05-04 15:24 60.31460 24.94983 174 ft 8 kts 351°
2026-05-04 15:25 60.31493 24.95004 174 ft 4 kts 46°
2026-05-04 15:25 60.31514 24.95047 174 ft 4 kts 47°
2026-05-04 15:25 60.31543 24.95112 175 ft 8 kts 47°
2026-05-04 15:26 60.31655 24.95355 176 ft 15 kts 47°
2026-05-04 15:26 60.31735 24.95531 177 ft 18 kts 47°
2026-05-04 15:26 60.31884 24.95861 177 ft 13 kts 48°
2026-05-04 15:27 60.31948 24.95960 177 ft 10 kts 354°
2026-05-04 15:27 60.32035 24.95827 178 ft 5 kts 317°
2026-05-04 15:28 60.32134 24.95643 179 ft 11 kts 318°
2026-05-04 15:28 60.32188 24.95545 179 ft 9 kts 318°
2026-05-04 15:28 60.32265 24.95404 180 ft 6 kts 317°
2026-05-04 15:29 60.32300 24.95339 180 ft 8 kts 317°
2026-05-04 15:30 60.32634 24.95079 182 ft 12 kts 342°
2026-05-04 15:30 60.32796 24.94972 184 ft 4 kts 342°
2026-05-04 15:31 60.32878 24.94918 186 ft 8 kts 342°
2026-05-04 15:31 60.32932 24.94842 187 ft 11 kts 316°
2026-05-04 15:32 60.33127 24.94463 190 ft 8 kts 295°
2026-05-04 15:32 60.33026 24.94200 187 ft 39 kts 227°
2026-05-04 15:33 60.32011 24.91957 163 ft 176 kts 228°
2026-05-04 15:34 60.28928 24.85892 2133 ft 223 kts 230°
2026-05-04 15:34 60.28170 24.83058 2954 ft 236 kts 259°
2026-05-04 15:34 60.28020 24.77298 4698 ft 259 kts 271°
2026-05-04 15:35 60.28022 24.74852 5454 ft 266 kts 270°
2026-05-04 15:35 60.27869 24.72277 6574 ft 260 kts 253°
2026-05-04 15:35 60.27182 24.69048 7995 ft 252 kts 252°
2026-05-04 15:36 60.26224 24.62224 9176 ft 259 kts 256°
2026-05-04 15:36 60.25760 24.58759 9831 ft 260 kts 256°
2026-05-04 15:36 60.25287 24.55182 10193 ft 273 kts 256°
2026-05-04 15:37 60.24778 24.51337 10434 ft 291 kts 256°
2026-05-04 15:37 60.24421 24.48936 10567 ft 302 kts 250°
2026-05-04 15:37 60.23917 24.46611 10696 ft 313 kts 245°
2026-05-04 15:37 60.23463 24.44873 10831 ft 320 kts 244°
2026-05-04 15:38 60.22742 24.42199 11049 ft 331 kts 243°
2026-05-04 15:38 60.21978 24.39382 11295 ft 341 kts 243°
2026-05-04 15:38 60.21518 24.37686 11416 ft 347 kts 243°
2026-05-04 15:38 60.20813 24.35082 11711 ft 353 kts 243°
2026-05-04 15:39 60.19615 24.30654 12507 ft 356 kts 242°
2026-05-04 15:39 60.18465 24.26403 13267 ft 357 kts 243°
2026-05-04 15:39 60.16107 24.17705 14692 ft 363 kts 242°
2026-05-04 15:40 60.14893 24.13241 15402 ft 366 kts 242°
2026-05-04 15:40 60.13660 24.08711 16129 ft 368 kts 242°
2026-05-04 15:40 60.12649 24.05009 16681 ft 370 kts 242°
2026-05-04 15:40 60.11494 24.00783 17331 ft 372 kts 242°
2026-05-04 15:41 60.10400 23.96786 17919 ft 373 kts 242°
2026-05-04 15:41 60.09127 23.92148 18592 ft 376 kts 242°
2026-05-04 15:41 60.07877 23.87579 19175 ft 379 kts 242°
2026-05-04 15:41 60.06646 23.82870 19773 ft 383 kts 243°
2026-05-04 15:42 60.05408 23.78117 20358 ft 386 kts 243°
2026-05-04 15:42 60.04165 23.73358 20918 ft 390 kts 243°
2026-05-04 15:42 60.02901 23.68538 21467 ft 394 kts 243°
2026-05-04 15:42 60.01625 23.63686 22024 ft 397 kts 243°
2026-05-04 15:43 60.00346 23.58837 22561 ft 400 kts 243°
2026-05-04 15:43 59.99043 23.53908 23083 ft 403 kts 243°
2026-05-04 15:43 59.97748 23.49021 23626 ft 405 kts 243°
2026-05-04 15:43 59.96417 23.44011 24112 ft 408 kts 243°
2026-05-04 15:44 59.95095 23.39048 24556 ft 411 kts 243°
2026-05-04 15:44 59.94325 23.36158 24814 ft 412 kts 243°
2026-05-04 15:44 59.93636 23.33580 25046 ft 414 kts 242°
2026-05-04 15:44 59.92349 23.28770 25475 ft 416 kts 242°
2026-05-04 15:45 59.91085 23.24055 25901 ft 418 kts 242°
2026-05-04 15:45 59.89698 23.18891 26351 ft 421 kts 242°
2026-05-04 15:45 59.88390 23.14034 26742 ft 424 kts 242°
2026-05-04 15:45 59.87293 23.09968 27083 ft 426 kts 242°
2026-05-04 15:46 59.85918 23.04885 27485 ft 429 kts 242°
2026-05-04 15:46 59.84497 22.99643 27905 ft 431 kts 242°
2026-05-04 15:46 59.83076 22.94411 28324 ft 433 kts 242°
2026-05-04 15:46 59.81631 22.89101 28718 ft 436 kts 242°
2026-05-04 15:47 59.80179 22.83783 29157 ft 437 kts 242°
2026-05-04 15:47 59.78841 22.78891 29682 ft 436 kts 242°
2026-05-04 15:47 59.77404 22.73650 30268 ft 433 kts 242°
2026-05-04 15:47 59.75979 22.68463 30752 ft 432 kts 242°
2026-05-04 15:48 59.74804 22.64192 31064 ft 432 kts 242°
2026-05-04 15:48 59.73372 22.59002 31426 ft 432 kts 242°
2026-05-04 15:48 59.71119 22.50857 31679 ft 434 kts 242°
2026-05-04 15:49 59.69534 22.45149 31691 ft 433 kts 242°
2026-05-04 15:49 59.68533 22.41548 31691 ft 432 kts 242°
2026-05-04 15:50 59.65877 22.32026 31705 ft 442 kts 241°
2026-05-04 15:50 59.62857 22.21242 31706 ft 453 kts 241°
2026-05-04 15:51 59.59798 22.10373 31705 ft 457 kts 241°
2026-05-04 15:51 59.56707 21.99446 31705 ft 457 kts 242°
2026-05-04 15:52 59.53606 21.88535 31698 ft 456 kts 242°
2026-05-04 15:52 59.50532 21.77767 31703 ft 457 kts 242°
2026-05-04 15:53 59.47402 21.66856 31693 ft 456 kts 242°
2026-05-04 15:53 59.44284 21.56039 31695 ft 457 kts 242°
2026-05-04 15:54 59.41258 21.45575 31704 ft 457 kts 242°
2026-05-04 15:54 59.38119 21.34770 31685 ft 457 kts 241°
2026-05-04 15:55 59.34970 21.23979 31709 ft 458 kts 241°
2026-05-04 15:55 59.31811 21.13207 31706 ft 458 kts 241°
2026-05-04 15:56 59.28641 21.02445 31709 ft 458 kts 241°
2026-05-04 15:56 59.25473 20.91740 31712 ft 457 kts 241°
2026-05-04 15:57 59.22390 20.81371 31700 ft 457 kts 241°
2026-05-04 15:57 59.18823 20.71081 31690 ft 462 kts 231°
2026-05-04 15:58 59.13947 20.63008 31687 ft 468 kts 216°
2026-05-04 15:58 59.08275 20.56604 31685 ft 470 kts 214°
2026-05-04 15:59 59.02605 20.50348 31690 ft 471 kts 214°
2026-05-04 15:59 58.96892 20.44081 31692 ft 471 kts 214°
2026-05-04 16:00 58.91189 20.37852 31696 ft 471 kts 214°
2026-05-04 16:00 58.86393 20.32635 31722 ft 473 kts 213°
2026-05-04 16:01 58.81375 20.27197 31722 ft 472 kts 213°
2026-05-04 16:01 58.76328 20.21746 31715 ft 473 kts 213°
2026-05-04 16:02 58.70581 20.15560 31713 ft 475 kts 213°
2026-05-04 16:03 58.61945 20.06312 31711 ft 475 kts 213°
2026-05-04 16:03 58.59033 20.03205 31707 ft 476 kts 213°
2026-05-04 16:04 58.50766 19.94418 31720 ft 476 kts 213°
2026-05-04 16:04 58.42084 19.85241 31714 ft 476 kts 213°
2026-05-04 16:05 58.36292 19.79147 31710 ft 477 kts 213°
2026-05-04 16:06 58.27564 19.70010 31720 ft 478 kts 213°
2026-05-04 16:07 58.16225 19.58215 31720 ft 478 kts 213°
2026-05-04 16:08 58.06552 19.48220 31719 ft 479 kts 213°
2026-05-04 16:09 57.90248 19.31516 31741 ft 478 kts 212°
2026-05-04 16:10 57.83332 19.24482 31739 ft 479 kts 212°
2026-05-04 16:11 57.71904 19.12926 31743 ft 478 kts 212°
2026-05-04 16:12 57.55911 18.96895 31750 ft 479 kts 212°
2026-05-04 16:13 57.46250 18.87289 31748 ft 478 kts 212°
2026-05-04 16:16 57.21998 18.63427 31759 ft 478 kts 212°
2026-05-04 16:17 57.07257 18.49097 31761 ft 480 kts 212°
2026-05-04 16:18 56.95490 18.37752 31768 ft 480 kts 212°
2026-05-04 16:19 56.80452 18.23370 31782 ft 478 kts 212°
2026-05-04 16:20 56.65560 18.09257 31786 ft 476 kts 211°
2026-05-04 16:22 56.50758 17.95353 31816 ft 475 kts 212°
2026-05-04 16:23 56.33192 17.79012 31823 ft 473 kts 212°
2026-05-04 16:25 56.15678 17.62889 31832 ft 469 kts 212°
2026-05-04 16:26 55.96123 17.45080 31851 ft 467 kts 212°
2026-05-04 16:28 55.80925 17.31379 31870 ft 468 kts 212°
2026-05-04 16:29 55.58885 17.21667 31878 ft 505 kts 174°
2026-05-04 16:30 55.49102 17.28290 31962 ft 522 kts 163°
2026-05-04 16:31 55.42542 17.33462 32517 ft 519 kts 162°
2026-05-04 16:31 55.32636 17.41311 32907 ft 520 kts 162°
2026-05-04 16:32 55.22793 17.49113 32905 ft 517 kts 162°
2026-05-04 16:33 55.09630 17.59273 32914 ft 517 kts 163°
2026-05-04 16:34 54.99749 17.66809 32903 ft 517 kts 164°
2026-05-04 16:35 54.80127 17.82186 32911 ft 517 kts 163°
2026-05-04 16:36 54.70316 17.89832 32907 ft 517 kts 163°
2026-05-04 16:37 54.60484 17.97443 32909 ft 518 kts 163°
2026-05-04 16:38 54.47356 18.07540 32909 ft 519 kts 162°
2026-05-04 16:39 54.30889 18.20108 32917 ft 518 kts 162°
2026-05-04 16:40 54.17747 18.29969 32920 ft 517 kts 162°
2026-05-04 16:41 54.01301 18.42193 32915 ft 517 kts 162°
2026-05-04 16:43 53.84885 18.54291 32917 ft 519 kts 162°
2026-05-04 16:43 53.74983 18.61541 32921 ft 518 kts 162°
2026-05-04 16:45 53.55230 18.75886 32914 ft 519 kts 162°
2026-05-04 16:46 53.38257 18.85470 32912 ft 515 kts 168°
2026-05-04 16:47 53.26790 18.91478 32916 ft 517 kts 168°
2026-05-04 16:48 53.13972 18.98161 32915 ft 517 kts 167°
2026-05-04 16:49 53.00185 19.05301 32917 ft 519 kts 167°
2026-05-04 16:50 52.86404 19.12394 32913 ft 519 kts 167°
2026-05-04 16:51 52.76957 19.17229 32910 ft 519 kts 167°
2026-05-04 16:52 52.63601 19.24027 32915 ft 519 kts 167°
2026-05-04 16:53 52.53274 19.29253 32913 ft 520 kts 166°
2026-05-04 16:54 52.39437 19.36215 32917 ft 520 kts 166°
2026-05-04 16:55 52.18760 19.46532 32919 ft 521 kts 166°
2026-05-04 16:56 52.02820 19.54419 32921 ft 521 kts 166°
2026-05-04 16:57 51.95032 19.58251 32926 ft 521 kts 166°
2026-05-04 16:58 51.81698 19.64782 32939 ft 521 kts 165°
2026-05-04 17:00 51.61089 19.75577 32934 ft 520 kts 164°
2026-05-04 17:01 51.43910 19.84587 32933 ft 520 kts 164°
2026-05-04 17:02 51.30232 19.91700 32938 ft 521 kts 164°
2026-05-04 17:03 51.19900 19.97047 32944 ft 521 kts 164°
2026-05-04 17:03 51.09545 20.02364 32944 ft 521 kts 164°
2026-05-04 17:04 50.95736 20.09415 32948 ft 520 kts 164°
2026-05-04 17:05 50.82042 20.16370 32954 ft 520 kts 163°
2026-05-04 17:06 50.72914 20.20985 32955 ft 520 kts 163°
2026-05-04 17:07 50.64765 20.25089 32961 ft 520 kts 163°
2026-05-04 17:07 50.56804 20.29712 32972 ft 521 kts 160°
2026-05-04 17:08 50.46601 20.35833 32972 ft 521 kts 160°
2026-05-04 17:09 50.39919 20.39801 32971 ft 521 kts 160°
2026-05-04 17:09 50.33102 20.43826 32969 ft 521 kts 160°
2026-05-04 17:10 50.16140 20.53769 32970 ft 522 kts 160°
2026-05-04 17:11 50.09311 20.57748 32967 ft 522 kts 160°
2026-05-04 17:12 49.99131 20.63656 32970 ft 523 kts 160°
2026-05-04 17:13 49.82470 20.73266 32976 ft 523 kts 160°
2026-05-04 17:14 49.69193 20.80873 33010 ft 524 kts 160°
2026-05-04 17:15 49.59277 20.86526 33017 ft 524 kts 160°
2026-05-04 17:16 49.46072 20.94015 33041 ft 524 kts 160°
2026-05-04 17:17 49.32462 21.01409 33070 ft 525 kts 166°
2026-05-04 17:18 49.18205 21.06443 33067 ft 525 kts 167°
2026-05-04 17:19 49.03984 21.11389 33056 ft 525 kts 167°
2026-05-04 17:20 48.90271 21.16135 33054 ft 526 kts 167°
2026-05-04 17:20 48.79562 21.19823 33048 ft 526 kts 167°
2026-05-04 17:21 48.65387 21.24680 33043 ft 527 kts 167°
2026-05-04 17:22 48.58341 21.27276 33040 ft 528 kts 160°
2026-05-04 17:23 48.48919 21.35659 33041 ft 525 kts 135°
2026-05-04 17:23 48.46417 21.39636 33044 ft 523 kts 129°
2026-05-04 17:24 48.39415 21.52163 33042 ft 523 kts 128°
2026-05-04 17:25 48.31262 21.66690 33041 ft 523 kts 128°
2026-05-04 17:26 48.26546 21.75044 33039 ft 523 kts 128°
2026-05-04 17:27 48.16871 21.92095 33040 ft 523 kts 128°
2026-05-04 17:28 48.07576 22.08369 33043 ft 523 kts 128°
2026-05-04 17:29 47.93854 22.32213 33048 ft 522 kts 128°
2026-05-04 17:31 47.82357 22.52027 33049 ft 521 kts 128°
2026-05-04 17:32 47.71043 22.71385 33053 ft 521 kts 129°
2026-05-04 17:33 47.61522 22.87567 33064 ft 521 kts 129°
2026-05-04 17:34 47.52021 23.03618 33086 ft 519 kts 129°
2026-05-04 17:35 47.40094 23.23631 33083 ft 518 kts 129°
2026-05-04 17:36 47.35333 23.31580 33081 ft 519 kts 129°
2026-05-04 17:36 47.30578 23.39494 33083 ft 519 kts 129°
2026-05-04 17:37 47.25774 23.47466 33086 ft 519 kts 129°
2026-05-04 17:37 47.20977 23.55403 33089 ft 518 kts 129°
2026-05-04 17:38 47.16198 23.63286 33088 ft 517 kts 129°
2026-05-04 17:38 47.11531 23.70965 33086 ft 517 kts 130°
2026-05-04 17:39 47.04265 23.82874 33083 ft 517 kts 130°
2026-05-04 17:39 46.99435 23.90762 33083 ft 519 kts 130°
2026-05-04 17:40 46.94617 23.98606 33079 ft 518 kts 130°
2026-05-04 17:40 46.89872 24.06310 33079 ft 517 kts 130°
2026-05-04 17:41 46.85004 24.14190 33080 ft 518 kts 130°
2026-05-04 17:41 46.80181 24.21975 33081 ft 517 kts 130°
2026-05-04 17:42 46.75344 24.29759 33082 ft 518 kts 130°
2026-05-04 17:42 46.70511 24.37517 33086 ft 519 kts 130°
2026-05-04 17:43 46.65669 24.45265 33084 ft 519 kts 130°
2026-05-04 17:43 46.60780 24.53066 33089 ft 519 kts 130°
2026-05-04 17:44 46.55927 24.60787 33092 ft 519 kts 130°
2026-05-04 17:44 46.51046 24.68532 33080 ft 520 kts 131°
2026-05-04 17:45 46.46179 24.76230 33089 ft 521 kts 131°
2026-05-04 17:45 46.41264 24.83984 33086 ft 521 kts 131°
2026-05-04 17:46 46.36385 24.91658 33086 ft 522 kts 131°
2026-05-04 17:46 46.31467 24.99373 33083 ft 521 kts 131°
2026-05-04 17:47 46.26530 25.07094 33084 ft 521 kts 132°
2026-05-04 17:47 46.21588 25.14801 33085 ft 523 kts 132°
2026-05-04 17:48 46.16653 25.22476 33083 ft 522 kts 132°
2026-05-04 17:48 46.11795 25.30009 33078 ft 523 kts 132°
2026-05-04 17:49 46.06867 25.37630 33094 ft 523 kts 132°
2026-05-04 17:49 46.01888 25.45309 33097 ft 523 kts 132°
2026-05-04 17:50 45.96944 25.52911 33105 ft 523 kts 132°
2026-05-04 17:50 45.91999 25.60493 33101 ft 524 kts 132°
2026-05-04 17:51 45.87169 25.67880 33098 ft 524 kts 133°
2026-05-04 17:51 45.82137 25.75553 33096 ft 525 kts 133°
2026-05-04 17:52 45.77112 25.83196 33098 ft 525 kts 133°
2026-05-04 17:52 45.72142 25.90731 33098 ft 524 kts 133°
2026-05-04 17:53 45.67117 25.98331 33117 ft 524 kts 133°
2026-05-04 17:53 45.62137 26.05840 33126 ft 524 kts 133°
2026-05-04 17:54 45.57122 26.13382 33119 ft 524 kts 133°
2026-05-04 17:54 45.52116 26.20889 33102 ft 524 kts 133°
2026-05-04 17:55 45.47095 26.28398 33089 ft 523 kts 134°
2026-05-04 17:55 45.42067 26.35897 33089 ft 523 kts 134°
2026-05-04 17:56 45.37067 26.43332 33083 ft 523 kts 134°
2026-05-04 17:56 45.32053 26.50770 33074 ft 522 kts 134°
2026-05-04 17:57 45.26998 26.58248 33073 ft 522 kts 134°
2026-05-04 17:57 45.22290 26.65193 33065 ft 524 kts 134°
2026-05-04 17:58 45.17243 26.72618 33063 ft 522 kts 134°
2026-05-04 17:58 45.12174 26.80056 33059 ft 522 kts 134°
2026-05-04 17:59 45.07150 26.87409 33062 ft 521 kts 134°
2026-05-04 18:00 44.99706 26.98267 33056 ft 520 kts 134°
2026-05-04 18:00 44.96991 27.02215 33057 ft 521 kts 134°
2026-05-04 18:01 44.92816 27.08276 33052 ft 522 kts 134°
2026-05-04 18:01 44.88488 27.14546 33054 ft 523 kts 134°
2026-05-04 18:02 44.82855 27.22684 33051 ft 522 kts 133°
2026-05-04 18:02 44.78308 27.29236 33052 ft 522 kts 133°
2026-05-04 18:03 44.73241 27.36519 33051 ft 522 kts 133°
2026-05-04 18:03 44.68156 27.43808 33056 ft 522 kts 133°
2026-05-04 18:04 44.63236 27.50842 33055 ft 522 kts 133°
2026-05-04 18:05 44.56667 27.60205 33060 ft 522 kts 133°
2026-05-04 18:05 44.51716 27.67241 33058 ft 523 kts 133°
2026-05-04 18:06 44.44119 27.78003 33059 ft 522 kts 133°
2026-05-04 18:06 44.38973 27.85268 33062 ft 523 kts 133°
2026-05-04 18:07 44.33882 27.92437 33063 ft 522 kts 133°
2026-05-04 18:07 44.28731 27.99671 33067 ft 523 kts 133°
2026-05-04 18:08 44.23679 28.06747 33063 ft 522 kts 133°
2026-05-04 18:08 44.18624 28.13809 33063 ft 521 kts 133°
2026-05-04 18:09 44.08371 28.28079 33048 ft 521 kts 132°
2026-05-04 18:10 44.03254 28.35173 33048 ft 520 kts 132°
2026-05-04 18:10 43.98123 28.42268 33045 ft 521 kts 132°
2026-05-04 18:11 43.92947 28.49407 33044 ft 521 kts 131°
2026-05-04 18:11 43.87824 28.56454 33034 ft 519 kts 131°
2026-05-04 18:12 43.82679 28.63514 33033 ft 520 kts 131°
2026-05-04 18:12 43.77543 28.70542 33036 ft 519 kts 132°
2026-05-04 18:13 43.72396 28.77568 33036 ft 520 kts 131°
2026-05-04 18:14 43.65320 28.88762 33041 ft 512 kts 120°
2026-05-04 18:14 43.61319 28.96854 33036 ft 512 kts 121°
2026-05-04 18:16 43.48588 29.21521 33029 ft 513 kts 121°
2026-05-04 18:17 43.42332 29.33383 33028 ft 512 kts 121°
2026-05-04 18:18 43.36079 29.45159 33022 ft 513 kts 121°
2026-05-04 18:18 43.32215 29.52407 33015 ft 514 kts 121°
2026-05-04 18:19 43.27156 29.61864 33013 ft 513 kts 121°
2026-05-04 18:19 43.23274 29.69099 33014 ft 514 kts 121°
2026-05-04 18:20 43.19022 29.77001 33000 ft 513 kts 121°
2026-05-04 18:20 43.14802 29.84823 33000 ft 513 kts 121°
2026-05-04 18:21 43.10538 29.92707 33001 ft 512 kts 121°
2026-05-04 18:21 43.06306 30.00511 32998 ft 513 kts 121°
2026-05-04 18:22 43.02056 30.08325 32993 ft 512 kts 121°
2026-05-04 18:22 42.97851 30.16039 32990 ft 512 kts 121°
2026-05-04 18:23 42.93740 30.23558 32986 ft 510 kts 121°
2026-05-04 18:23 42.89488 30.31318 32978 ft 511 kts 121°
2026-05-04 18:24 42.85605 30.38385 32969 ft 510 kts 121°
2026-05-04 18:24 42.81644 30.45578 32961 ft 509 kts 121°
2026-05-04 18:25 42.78018 30.52148 32957 ft 510 kts 121°
2026-05-04 18:25 42.75163 30.58266 32951 ft 499 kts 109°
2026-05-04 18:26 42.73116 30.67036 32952 ft 484 kts 94°
2026-05-04 18:26 42.72190 30.76085 32956 ft 482 kts 92°
2026-05-04 18:27 42.71285 30.85130 32943 ft 482 kts 93°
2026-05-04 18:27 42.70369 30.94140 32946 ft 482 kts 93°
2026-05-04 18:28 42.69437 31.03180 32934 ft 482 kts 93°
2026-05-04 18:28 42.68498 31.12202 32938 ft 480 kts 93°
2026-05-04 18:29 42.67558 31.21142 32933 ft 479 kts 93°
2026-05-04 18:29 42.66613 31.30063 32924 ft 477 kts 93°
2026-05-04 18:30 42.65180 31.43451 32922 ft 476 kts 93°
2026-05-04 18:31 42.64389 31.50778 32923 ft 477 kts 93°
2026-05-04 18:31 42.63282 31.60957 32922 ft 475 kts 93°
2026-05-04 18:32 42.62330 31.69635 32923 ft 476 kts 94°
2026-05-04 18:32 42.61346 31.78545 32917 ft 476 kts 94°
2026-05-04 18:33 42.60358 31.87433 32913 ft 475 kts 94°
2026-05-04 18:33 42.59363 31.96310 32913 ft 475 kts 94°
2026-05-04 18:34 42.58371 32.05178 32900 ft 475 kts 94°
2026-05-04 18:34 42.57378 32.13982 32897 ft 476 kts 94°
2026-05-04 18:35 42.56364 32.22840 32911 ft 474 kts 94°
2026-05-04 18:35 42.55344 32.31678 32902 ft 475 kts 94°
2026-05-04 18:36 42.54313 32.40561 32904 ft 474 kts 94°
2026-05-04 18:36 42.53285 32.49363 32901 ft 475 kts 94°
2026-05-04 18:37 42.52245 32.58191 32908 ft 475 kts 94°
2026-05-04 18:37 42.51195 32.67056 32919 ft 476 kts 94°
2026-05-04 18:38 42.50375 32.73925 32913 ft 474 kts 94°
2026-05-04 18:38 42.49359 32.82406 32922 ft 475 kts 95°
2026-05-04 18:39 42.48289 32.91267 32917 ft 473 kts 94°
2026-05-04 18:39 42.47220 33.00061 32915 ft 475 kts 95°
2026-05-04 18:40 42.46135 33.08931 32926 ft 475 kts 94°
2026-05-04 18:40 42.45050 33.17734 32928 ft 474 kts 95°
2026-05-04 18:41 42.43956 33.26553 32911 ft 474 kts 95°
2026-05-04 18:41 42.42861 33.35315 32925 ft 474 kts 95°
2026-05-04 18:42 42.41754 33.44112 32925 ft 475 kts 95°
2026-05-04 18:42 42.40641 33.52919 32936 ft 474 kts 95°
2026-05-04 18:43 42.39555 33.61458 32921 ft 476 kts 95°
2026-05-04 18:43 42.38493 33.69746 32936 ft 474 kts 96°
2026-05-04 18:44 42.37774 33.75344 32943 ft 475 kts 96°
2026-05-04 18:44 42.36634 33.84161 32971 ft 475 kts 96°
2026-05-04 18:45 42.35500 33.92883 32930 ft 476 kts 96°
2026-05-04 18:45 42.34379 34.01479 32931 ft 476 kts 96°
2026-05-04 18:46 42.33205 34.10426 32958 ft 479 kts 96°
2026-05-04 18:46 42.32072 34.19008 32948 ft 476 kts 96°
2026-05-04 18:47 42.30873 34.28029 32949 ft 477 kts 97°
2026-05-04 18:47 42.29739 34.36515 32928 ft 477 kts 97°
2026-05-04 18:48 42.28549 34.45363 32951 ft 479 kts 97°
2026-05-04 18:48 42.27355 34.54175 32940 ft 478 kts 97°
2026-05-04 18:49 42.26146 34.63045 32931 ft 479 kts 97°
2026-05-04 18:49 42.24970 34.71623 32930 ft 481 kts 98°
2026-05-04 18:50 42.23730 34.80610 32943 ft 479 kts 98°
2026-05-04 18:50 42.22500 34.89451 32957 ft 482 kts 98°
2026-05-04 18:51 42.21249 34.98391 32951 ft 485 kts 98°
2026-05-04 18:51 42.20002 35.07248 32950 ft 483 kts 99°
2026-05-04 18:52 42.18730 35.16225 32960 ft 483 kts 98°
2026-05-04 18:52 42.17469 35.25079 32939 ft 484 kts 99°
2026-05-04 18:53 42.16193 35.33991 32913 ft 483 kts 99°
2026-05-04 18:53 42.14901 35.42959 32933 ft 487 kts 99°
2026-05-04 18:54 42.13609 35.51892 32939 ft 485 kts 99°
2026-05-04 18:54 42.12326 35.60718 32939 ft 488 kts 99°
2026-05-04 18:55 42.11152 35.68749 32910 ft 486 kts 100°
2026-05-04 18:55 42.09180 35.82152 32912 ft 489 kts 100°
2026-05-04 18:56 42.07844 35.91167 32920 ft 488 kts 101°
2026-05-04 18:56 42.06510 36.00115 32927 ft 491 kts 101°
2026-05-04 18:57 42.05164 36.09090 32932 ft 490 kts 101°
2026-05-04 18:57 42.03818 36.18020 32926 ft 489 kts 101°
2026-05-04 18:58 42.02452 36.27033 32931 ft 491 kts 101°
2026-05-04 18:58 42.01083 36.36016 32924 ft 492 kts 101°
2026-05-04 18:59 41.99697 36.45053 32923 ft 492 kts 101°
2026-05-04 18:59 41.98309 36.54062 32923 ft 492 kts 101°
2026-05-04 19:00 41.96923 36.63006 32919 ft 493 kts 101°
2026-05-04 19:00 41.95513 36.72051 32916 ft 492 kts 102°
2026-05-04 19:01 41.94098 36.81082 32913 ft 494 kts 102°
2026-05-04 19:01 41.92672 36.90139 32914 ft 495 kts 102°
2026-05-04 19:02 41.91255 36.99080 32918 ft 494 kts 102°
2026-05-04 19:02 41.89287 37.07932 32919 ft 495 kts 111°
2026-05-04 19:03 41.87606 37.13355 32921 ft 494 kts 112°